Location: Newark
(45.0667°N, 8.1000°E)
Time: 20:27:35
(UTC+00:00)

Starlink (trailer) - Visible Passes

Search period start: 22 July 2019 00:00
Search period end: 01 August 2019 00:00
Orbit: 548 x 551 km, 53.0° (Epoch: 22 July)

Date Brightness Start Highest point End Pass type
(mag) Time Alt. Az. Time Alt. Az. Time Alt. Az.
22 Jul 3.5 00:38:59 84° NW 00:39:01 84° NNW 00:43:11 10° ENE visible
22 Jul 5.3 02:15:19 10° WNW 02:19:02 31° NNW 02:22:46 10° NE visible
23 Jul 3.8 00:33:22 65° WNW 00:33:38 67° NNW 00:37:46 10° NE visible
23 Jul 5.5 02:10:06 10° WNW 02:13:45 29° N 02:17:24 10° NE visible
23 Jul 6.1 22:52:04 13° ENE 22:52:04 13° ENE 22:52:32 10° ENE visible
24 Jul 4.2 00:27:41 49° WNW 00:28:16 55° NNW 00:32:21 10° NE visible
24 Jul 5.6 02:04:53 10° WNW 02:08:29 27° N 02:12:04 10° NE visible
24 Jul 5.8 22:46:19 16° ENE 22:46:19 16° ENE 22:47:16 10° ENE visible
25 Jul 4.5 00:21:55 38° WNW 00:22:55 46° NNW 00:26:56 10° NE visible
25 Jul 5.7 01:59:39 10° WNW 02:03:13 27° N 02:06:47 10° ENE visible
25 Jul 5.5 22:40:28 21° ENE 22:40:28 21° ENE 22:41:56 10° ENE visible
26 Jul 4.9 00:16:04 28° WNW 00:17:36 39° NNW 00:21:31 10° NE visible
26 Jul 5.7 01:54:23 10° WNW 01:57:58 27° N 02:01:31 10° ENE visible
26 Jul 5.0 22:34:28 29° ENE 22:34:28 29° ENE 22:36:34 10° ENE visible
27 Jul 5.2 00:10:03 20° WNW 00:12:17 34° NNW 00:16:07 10° NE visible
27 Jul 5.7 01:49:06 10° NW 01:52:41 27° N 01:56:16 10° ENE visible
27 Jul 4.5 03:28:50 10° NW 03:32:55 54° NNE 03:36:59 10° ESE visible
27 Jul 4.3 22:28:09 47° NE 22:28:09 47° NE 22:31:10 10° ENE visible
28 Jul 5.4 00:03:42 12° WNW 00:06:59 31° NNW 00:10:44 10° NE visible
28 Jul 5.7 01:43:46 10° NW 01:47:24 28° N 01:51:03 10° ENE visible
28 Jul 4.1 03:23:24 10° NW 03:27:33 66° NNE 03:31:40 10° ESE visible
28 Jul 5.9 20:45:28 11° E 20:45:28 11° E 20:45:38 10° E visible
28 Jul 3.8 22:20:55 57° W 22:21:35 70° NNW 22:25:45 10° NE visible
28 Jul 5.6 23:58:02 10° WNW 00:01:42 29° N 00:05:21 10° NE visible
29 Jul 5.5 01:38:25 10° NW 01:42:08 31° NNE 01:45:51 10° ENE visible
29 Jul 3.7 03:17:59 10° WNW 03:22:09 83° NNE 03:26:18 10° ESE visible
29 Jul 4.3 20:33:08 10° SSW 20:36:48 31° SE 20:40:28 10° ENE visible
29 Jul 4.2 22:12:07 10° WSW 22:16:13 56° NNW 22:20:19 10° NE visible
29 Jul 5.7 23:52:49 10° WNW 23:56:25 27° N 00:00:01 10° NE visible
30 Jul 5.4 01:33:01 10° NW 01:36:50 33° NNE 01:40:38 10° E visible
30 Jul 3.5 03:12:34 10° WNW 03:16:44 78° SW 03:20:52 10° SE visible
30 Jul 4.0 20:27:24 10° SSW 20:31:17 40° SE 20:35:12 10° ENE visible
30 Jul 4.6 22:06:50 10° W 22:10:51 47° NNW 22:14:53 10° NE visible
30 Jul 5.7 23:47:34 10° WNW 23:51:09 27° N 23:54:43 10° ENE visible
31 Jul 5.1 01:27:37 10° NW 01:31:31 38° NNE 01:35:24 10° E visible
31 Jul 3.6 03:07:11 10° WNW 03:11:17 60° SW 03:15:21 10° SE visible
31 Jul 3.7 20:21:46 10° SW 20:25:48 54° SE 20:29:51 10° ENE visible
31 Jul 4.9 22:01:35 10° W 22:05:31 40° NNW 22:09:28 10° NE visible
31 Jul 5.8 23:42:19 10° WNW 23:45:52 27° N 23:49:26 10° ENE visible
